SCP
2 2 1 1 1 2 2 2 3 4 3 2 2 2 2 2 1 1 1 1 1 1 1 1 1 1 1 1 1 1 2 2 2 1 1 1 1 1 1 1 0 0 0
2 2 2 2 2 2 2 2 4 5 4 3 3 2 2 2 1 1 1 1 1 1 1 1 1 1 1 1 2 2 2 2 2 1 1 1 1 1 1 1 1 0 0
2 2 2 2 2 2 2 3 3 4 4 3 3 3 2 2 2 1 1 1 1 1 1 1 1 1 1 1 2 2 2 2 2 2 1 1 1 1 1 1 1 1 0
2 2 2 2 2 3 3 7 9 7 3 3 4 3 3 3 2 2 1 2 2 1 1 1 1 1 1 1 2 2 2 2 2 2 1 1 1 1 1 1 1 1 0
2 2 2 2 3 3 3 10 16 9 3 3 3 3 3 4 3 2 1 1 2 1 1 1 1 1 1 2 2 2 2 2 2 2 2 1 1 1 1 1 1 1 1
2 3 3 3 3 3 3 7 10 7 3 3 3 2 3 3 3 2 2 1 1 1 1 1 1 1 2 2 2 2 2 2 2 2 2 2 1 1 1 1 1 1 1
2 3 3 3 3 3 3 3 4 4 3 3 3 3 3 2 2 2 2 2 2 1 1 1 1 2 2 2 2 2 2 2 2 2 2 2 2 1 1 1 1 1 1
2 2 3 3 3 3 3 3 3 3 4 4 4 3 3 2 2 2 2 2 2 2 2 1 1 2 2 2 2 2 2 2 2 2 2 2 2 2 1 1 1 1 1
1 2 2 3 3 3 3 2 3 3 4 4 4 4 3 2 1 1 1 1 2 2 2 2 1 1 2 2 2 2 2 2 2 2 2 2 2 2 1 1 1 1 1
1 1 2 2 2 2 2 2 2 3 3 3 4 3 3 2 1 1 1 1 1 1 1 1 1 1 1 1 1 1 1 1 1 1 1 1 1 1 1 1 1 1 1
1 1 1 1 1 2 2 2 2 2 2 3 3 3 2 2 2 1 1 1 1 1 1 1 1 1 1 1 1 1 1 0 1 1 1 1 1 1 1 1 1 1 1
0 1 1 1 1 1 1 1 2 2 2 2 2 2 2 2 2 2 1 1 1 1 1 1 1 1 1 0 0 0 0 0 0 0 0 1 1 1 1 1 1 1 1
0 0 0 1 1 1 1 1 1 2 2 2 2 2 2 2 2 1 1 1 1 1 1 1 1 1 1 0 0 0 0 0 0 0 0 0 0 1 1 1 1 1 1
0 0 0 0 0 1 1 1 1 2 2 2 2 2 2 1 1 1 1 1 1 1 1 1 1 1 0 0 0 0 0 0 0 0 0 0 0 0 0 0 1 1 1
0 0 0 0 0 1 1 1 1 1 1 2 2 2 2 1 1 1 1 1 0 0 0 0 0 0 0 0 0 0 0 0 0 0 0 0 0 0 0 0 0 0 0
0 0 0 0 0 0 1 1 1 1 1 1 1 1 1 1 1 1 1 0 0 0 0 0 0 0 0 0 0 0 0 0 0 0 0 0 0 0 0 0 0 0 0
0 0 0 0 0 0 0 0 1 1 1 1 1 1 1 1 1 1 1 0 0 0 0 0 0 0 0 0 0 0 0 0 0 0 0 0 0 0 0 0 0 0 0
0 0 0 0 0 0 0 0 0 0 1 1 1 0 1 1 1 1 1 0 0 0 0 0 0 0 0 0 0 0 0 0 0 0 0 0 0 0 0 0 0 0 0
0 0 0 0 0 0 0 0 0 0 0 0 0 0 0 1 1 1 0 0 0 0 0 0 0 0 0 0 0 0 0 0 0 0 0 0 0 0 0 0 0 0 0
0 0 0 0 0 0 0 0 0 0 0 0 0 0 0 0 0 0 0 0 0 0 0 0 0 0 0 0 0 0 0 0 0 0 0 0 0 0 0 0 0 0 0
0 0 0 0 0 0 0 0 0 0 0 0 0 0 0 0 0 0 0 0 0 0 0 0 0 0 0 0 0 0 0 0 0 0 0 0 0 0 0 0 0 0 0
0 0 0 0 0 0 0 0 0 0 0 0 0 0 0 0 0 0 0 0 0 0 0 0 0 0 0 0 0 0 0 0 0 0 0 0 0 0 0 0 0 0 0
0 0 0 0 0 0 0 0 0 0 0 0 0 0 0 0 0 0 0 0 0 0 0 0 0 0 0 0 0 0 0 0 0 0 0 0 0 0 0 0 0 0 0
0 0 0 0 0 0 0 0 0 0 0 0 0 0 0 0 0 0 0 0 0 0 0 0 0 0 0 0 0 0 0 0 0 0 0 0 0 0 0 0 0 0 0
0 0 0 0 0 0 0 0 0 0 0 0 0 0 0 0 0 0 0 0 0 0 0 0 0 0 0 0 0 0 0 0 0 0 0 0 0 0 0 0 0 0 0
0 0 0 0 0 0 0 0 0 0 0 0 0 0 0 0 0 0 0 0 0 0 0 0 0 0 0 0 0 0 0 0 0 0 0 0 0 0 0 0 0 0 0
Wind_Speed
6 6 6 6 7 6 7 7 7 8 8 9 9 9 10 10 9 8 6 14 15 15 16 17 16 16 15 15 16 17 18 19 19 19 20 21 21 20 20 20 19 19 18
7 7 7 7 7 7 7 7 8 7 6 6 8 8 9 8 8 9 8 10 14 15 15 17 17 17 16 15 16 17 17 18 18 18 19 20 20 20 20 20 19 19 19
9 8 7 7 7 6 6 5 6 5 5 6 7 8 7 8 8 9 8 7 8 12 15 16 16 16 17 17 17 17 17 17 18 18 19 19 19 19 19 19 19 19 19
10 8 8 8 7 6 5 5 4 4 5 5 5 6 5 5 8 8 8 8 7 7 10 14 15 15 17 18 18 18 17 17 18 19 19 20 20 19 19 19 18 18 18
9 8 8 8 7 6 6 6 4 4 5 6 6 6 6 6 7 8 9 9 9 8 8 10 14 15 18 19 18 18 18 18 18 19 20 20 21 20 19 19 18 17 18
7 7 6 8 8 7 7 6 7 6 6 5 7 7 6 6 6 8 10 9 8 9 9 9 8 10 15 17 17 17 17 18 18 19 20 21 21 20 19 19 18 18 18
4 5 5 6 6 6 8 8 7 7 7 5 4 5 5 7 9 8 7 7 8 8 7 7 6 7 7 12 14 14 15 16 17 18 19 19 20 20 19 19 19 18 18
4 4 4 5 5 5 7 7 6 4 5 6 5 3 3 3 4 6 5 6 7 5 6 6 6 6 6 5 6 10 11 12 14 15 16 17 18 18 19 20 19 19 18
6 5 5 5 5 5 6 7 7 8 7 6 6 5 4 5 2 2 4 4 4 4 4 4 5 4 4 3 3 4 5 5 6 9 11 14 16 17 18 20 20 19 19
6 6 6 6 6 5 6 6 6 7 7 6 5 6 5 3 3 2 2 2 4 4 4 4 3 3 2 1 1 2 3 3 3 4 6 8 12 15 17 19 20 20 20
6 7 7 6 6 5 6 7 6 7 6 6 5 4 5 4 5 4 3 2 2 2 2 3 1 0 1 1 1 3 5 5 4 3 2 2 5 10 15 18 20 20 20
5 6 7 7 7 6 7 7 7 8 7 8 6 5 5 4 5 5 6 3 2 2 1 1 1 1 1 2 3 6 7 7 6 6 5 5 3 1 7 13 16 18 19
5 7 7 7 7 7 8 7 7 8 8 8 8 6 6 5 4 4 4 3 3 1 0 1 2 2 2 2 3 5 7 7 7 7 8 8 7 7 4 2 6 9 12
6 7 8 8 9 9 8 7 7 7 7 8 8 8 5 6 5 4 4 4 3 2 1 1 1 2 2 2 3 4 4 7 7 8 9 10 10 10 9 8 7 4 3
5 7 8 9 9 8 8 7 6 7 6 6 7 7 5 5 5 5 4 4 4 3 2 1 1 2 2 3 4 4 4 7 8 8 9 10 11 11 10 10 9 8 7
6 7 8 8 8 8 8 7 6 6 6 5 5 6 6 4 4 4 4 3 3 3 3 2 2 2 3 5 7 6 7 9 9 8 9 9 10 10 10 10 10 9 8
5 6 7 8 8 8 7 5 5 5 5 4 4 6 6 5 4 4 4 3 2 3 5 3 3 3 5 6 6 6 6 6 6 9 9 9 9 9 9 9 9 9 8
5 5 6 7 7 7 7 5 4 2 2 2 3 4 5 4 5 4 4 4 4 4 6 6 3 4 5 5 5 6 6 6 6 10 10 10 9 9 8 8 8 8 7
4 4 5 6 7 6 6 5 5 4 4 3 3 4 5 6 6 5 6 6 5 6 6 7 4 3 4 4 5 5 7 5 6 7 9 9 9 8 8 8 7 7 6
3 3 4 5 5 5 5 5 6 6 7 7 6 6 6 6 7 8 7 7 8 8 7 7 5 4 4 3 4 4 5 5 6 6 6 6 7 8 8 8 7 7 7
3 2 2 3 4 3 4 4 5 6 6 7 8 7 7 9 10 8 8 8 9 8 7 7 6 5 4 4 4 2 3 3 5 5 4 5 4 5 5 7 7 8 7
3 2 1 1 2 2 3 5 4 5 6 7 8 8 9 11 15 15 14 12 10 9 9 7 6 6 4 3 3 3 3 3 3 5 4 4 4 4 4 4 7 8 8
5 4 2 2 1 0 2 4 6 5 5 5 6 7 8 9 10 11 14 16 14 12 9 7 8 5 3 2 3 4 4 4 3 4 3 4 4 3 3 4 8 10 10
6 5 4 4 3 2 4 5 6 6 6 6 6 7 8 7 7 10 11 10 9 8 7 6 6 4 3 2 2 3 3 3 2 3 4 3 4 3 3 3 7 10 11
7 6 5 6 5 4 6 9 8 5 6 6 5 5 7 8 9 12 11 10 9 7 9 11 10 9 9 7 4 3 3 4 4 3 4 3 3 3 3 3 5 9 11
9 8 7 7 7 6 9 11 10 6 6 5 5 5 7 8 9 10 9 10 9 6 6 8 8 9 9 10 10 6 4 4 3 3 5 4 3 3 3 3 4 6 8
Wind_Direction
245 246 249 246 245 242 240 244 246 248 250 250 247 245 249 248 249 249 255 262 264 264 267 270 269 266 259 250 242 236 231 226 222 218 218 218 219 220 219 218 216 214 212
241 243 246 245 245 242 240 239 244 248 252 254 255 251 249 250 251 251 251 260 263 264 265 268 269 267 260 251 242 236 232 229 225 221 219 219 220 220 220 220 218 215 213
238 241 247 247 247 245 244 245 252 253 256 255 257 258 256 252 253 255 255 254 259 262 260 260 262 262 260 254 245 238 232 229 226 223 220 220 220 220 220 219 219 216 213
237 238 243 248 244 238 235 235 240 251 256 255 257 261 257 254 255 254 255 253 252 258 259 258 258 259 259 257 251 242 235 230 226 224 222 220 220 220 219 218 218 215 211
243 236 241 245 239 234 231 229 220 215 238 245 248 250 247 248 253 258 257 256 253 253 257 259 259 258 259 259 254 246 238 233 229 225 223 221 220 219 218 217 216 213 209
255 245 242 244 238 232 229 218 215 212 219 229 249 253 241 244 248 249 255 258 256 258 260 262 261 259 255 254 253 250 243 237 233 228 225 222 220 217 215 215 214 211 209
279 268 258 250 240 236 233 223 217 220 223 212 230 255 254 244 245 245 248 252 255 259 263 262 258 254 254 249 247 247 247 242 237 233 228 223 219 216 213 212 211 209 207
306 292 271 263 254 249 245 232 223 221 226 200 205 222 260 269 247 244 244 245 250 255 262 267 265 257 253 246 245 244 245 246 243 238 231 224 218 214 212 210 209 207 206
310 299 288 277 266 252 250 245 230 224 230 219 203 200 213 233 255 265 247 244 245 251 261 272 270 268 262 246 245 247 254 259 263 253 240 227 217 211 209 209 207 206 205
306 302 294 284 275 266 262 257 241 231 229 231 217 216 218 194 203 253 264 250 249 256 264 268 270 267 274 292 5 24 25 14 337 297 273 240 219 211 209 209 207 206 205
305 305 299 290 281 273 267 261 252 236 229 229 216 202 213 216 216 219 247 257 270 265 274 275 258 288 9 29 45 51 57 49 35 14 341 291 232 216 211 211 210 209 207
305 308 307 298 288 278 271 263 253 242 233 230 223 206 192 190 197 206 223 230 245 264 299 340 35 38 41 43 58 64 65 58 48 43 42 41 39 212 213 212 212 213 212
310 311 312 304 295 285 278 268 257 248 237 230 224 218 210 206 180 181 197 206 219 237 11 30 19 23 39 42 47 50 61 64 58 55 55 57 56 54 60 135 198 205 212
298 302 307 302 296 291 285 275 264 252 239 231 225 217 211 211 196 184 178 172 184 196 145 87 33 29 29 42 48 56 64 66 66 63 61 61 61 60 62 68 73 88 142
300 307 309 306 302 296 288 280 264 256 243 233 224 215 210 208 201 196 184 176 170 172 157 90 68 22 27 60 48 65 71 72 73 70 67 65 64 63 63 65 67 68 68
306 314 317 315 310 305 298 283 270 257 245 235 221 214 211 205 197 190 188 187 178 154 132 93 65 38 39 69 58 70 73 75 71 73 71 71 70 69 67 66 65 64 61
310 319 323 323 322 320 314 299 279 260 244 234 218 208 206 190 180 175 166 156 147 131 121 96 52 40 56 65 62 66 69 71 70 70 72 72 72 71 69 67 65 61 55
310 319 326 331 336 338 337 333 321 300 242 217 196 178 169 157 146 138 134 129 125 118 123 118 72 49 55 57 63 63 59 64 66 65 67 68 73 74 70 68 65 59 50
310 327 337 342 345 350 359 8 22 41 57 70 96 122 126 125 116 110 109 109 108 106 104 113 96 61 61 51 61 63 59 51 54 56 59 59 61 68 68 66 61 54 43
289 321 338 342 349 2 14 25 43 56 61 61 61 72 87 101 109 112 107 109 110 105 102 103 98 77 63 47 63 66 65 49 42 34 41 44 48 55 56 52 45 38 30
256 287 329 344 352 6 26 36 54 66 69 68 62 62 74 93 97 102 112 113 112 109 104 101 97 86 67 58 57 49 75 62 50 26 24 32 31 42 42 37 34 24 16
238 244 268 326 360 18 42 57 71 77 79 79 78 73 78 84 89 89 93 95 104 112 111 105 99 95 84 71 62 62 64 57 41 9 12 21 21 33 29 30 18 14 9
216 214 211 192 162 98 94 85 76 78 77 80 87 89 91 92 95 97 88 82 79 84 98 113 107 105 103 96 95 81 70 70 59 354 359 19 7 11 8 13 10 10 5
209 206 199 188 172 172 151 129 102 85 78 70 75 94 105 100 105 108 101 91 81 73 83 90 102 102 103 109 100 101 98 91 73 36 15 24 353 345 339 355 10 10 6
211 203 193 183 175 174 165 147 126 105 92 77 72 89 109 107 115 114 108 103 92 80 79 86 85 81 78 76 95 99 82 78 55 24 17 16 352 332 328 341 355 2 359
213 202 192 187 179 174 169 154 138 127 114 103 85 79 98 116 121 121 121 120 115 110 107 92 74 63 65 61 58 66 85 88 71 34 10 4 3 356 354 344 345 359 1